Theta_e
309 311 311 312 314 315 315 315 315 315 314 313 313 312 311 310 311 312 313 312 313 312 312 313 313 314 315 315 316 320 327 332 335 339 339 338 338 340 340 340 341 341 339 340 341 341 340 338 339 339 340 339 339 339 338 339 339 337 337 337 336 336 337 336 336 336 336 335 335 335 333 332 334 335 336 337 337 336 336 336 335 336 336 336 335 335
311 312 312 313 314 316 316 317 316 316 315 314 312 312 311 310 311 313 313 312 313 312 311 313 313 313 315 315 316 319 322 327 331 336 338 338 338 338 340 341 341 341 340 339 341 342 341 339 339 339 341 340 340 340 339 339 338 337 337 336 336 336 336 336 336 336 335 334 334 334 333 331 333 335 336 336 336 336 336 336 335 335 335 335 334 334
312 312 313 314 315 316 317 316 316 316 315 314 313 311 310 311 312 313 313 312 312 312 312 313 312 313 315 315 316 318 318 321 325 330 334 336 337 336 338 341 341 341 341 340 340 342 342 341 340 340 341 341 341 340 339 338 337 337 336 335 335 335 336 336 335 335 334 334 334 334 333 332 333 335 336 336 336 336 336 335 334 334 334 334 333 333
313 313 314 315 315 316 316 316 316 316 316 314 313 311 310 312 312 311 312 313 313 312 312 314 313 313 315 315 316 317 318 318 320 323 327 332 335 335 336 340 342 342 342 341 340 342 343 342 341 340 341 341 341 340 339 338 337 336 336 335 335 334 335 335 335 335 334 333 334 334 334 335 334 334 336 337 336 336 335 334 333 333 333 333 332 332
313 313 314 314 314 314 315 315 315 314 314 315 315 312 311 312 312 311 312 313 313 313 314 313 311 311 313 315 315 316 317 317 317 320 325 329 332 334 335 338 341 343 343 342 341 342 343 343 341 340 341 341 341 340 340 339 337 336 336 336 334 334 335 335 334 334 334 333 334 334 334 336 336 335 337 337 336 335 334 333 333 332 333 332 332 332
314 314 314 313 313 313 314 315 315 314 312 313 315 314 312 312 312 312 312 312 310 310 313 313 308 309 313 314 315 316 317 317 316 320 325 329 331 333 334 336 341 342 342 342 340 340 342 343 342 341 341 341 341 340 340 338 336 336 336 335 334 334 334 335 334 334 334 334 334 335 335 335 335 334 336 336 335 334 333 332 332 332 332 332 332 332
314 314 313 313 314 313 314 314 314 315 312 312 314 314 313 312 312 312 311 311 308 309 314 315 309 308 311 314 316 316 317 316 317 319 322 325 329 331 332 334 339 341 341 341 340 339 341 343 342 342 341 341 341 340 339 338 336 336 336 335 334 334 334 334 335 335 335 334 334 334 334 334 333 333 334 335 334 333 332 331 331 331 332 331 332 332
315 314 314 314 314 314 313 313 314 314 312 312 313 312 312 312 312 312 311 310 309 311 315 315 312 310 309 313 317 317 317 317 318 319 320 321 325 329 331 333 337 340 340 340 339 338 340 342 342 342 341 341 340 340 339 338 336 335 334 334 334 333 333 334 334 334 334 334 335 334 332 332 332 333 335 334 332 331 330 331 330 330 330 331 331 331
315 315 315 314 313 314 313 314 315 313 312 312 313 312 311 312 312 312 311 310 311 313 311 312 313 311 309 312 317 319 317 316 318 320 321 321 322 326 331 334 336 338 340 338 337 338 340 342 341 341 341 341 340 340 339 338 335 333 332 332 332 332 331 332 334 334 334 335 334 333 333 333 334 335 335 333 331 330 330 330 330 330 329 330 330 331
315 314 314 314 313 313 313 314 314 313 313 312 312 312 312 312 312 313 312 311 313 314 310 311 313 311 309 310 313 317 316 317 321 323 325 325 321 324 330 334 336 337 337 336 336 338 340 341 340 341 341 340 340 338 336 336 334 332 331 331 330 330 330 331 332 333 334 334 333 332 331 330 333 335 332 331 331 331 330 330 330 329 328 329 330 330
313 312 312 314 314 314 314 314 314 313 313 312 312 312 312 313 313 314 314 312 314 314 311 311 313 312 309 309 311 317 320 325 330 330 330 330 326 325 330 333 335 334 335 336 336 338 341 341 340 340 339 338 337 333 332 333 332 331 330 329 329 330 330 330 331 332 332 333 332 331 330 329 332 333 331 330 331 330 329 329 329 329 328 328 329 329
313 312 312 313 313 313 313 313 313 312 312 311 311 312 312 313 313 313 313 314 314 313 311 312 314 312 309 310 316 324 328 331 333 333 334 334 330 329 331 333 334 334 335 336 336 338 340 340 339 338 336 336 334 329 329 332 332 330 330 329 328 329 329 330 330 330 331 332 332 330 331 333 333 332 331 331 330 329 329 329 328 328 328 328 328 328
313 313 313 313 313 312 312 312 311 311 311 311 311 312 312 311 313 313 312 314 313 312 312 312 312 311 309 313 321 329 331 332 332 333 333 333 333 332 332 332 333 335 336 336 337 338 338 338 337 336 335 335 331 327 329 331 331 331 331 329 328 328 329 330 330 330 330 333 333 330 332 335 334 332 331 331 330 329 329 329 328 328 327 327 327 328
314 314 313 313 313 313 312 311 310 311 311 311 311 311 311 311 313 315 313 312 311 311 314 314 313 311 309 316 326 330 331 332 332 332 333 333 335 335 333 333 334 335 336 337 337 337 337 337 338 336 335 334 330 328 329 329 331 332 331 330 329 328 329 330 330 330 331 333 333 332 333 335 333 332 331 330 330 329 329 329 328 328 327 326 327 327
313 314 314 313 313 313 313 312 312 313 311 312 312 312 311 310 312 314 312 310 310 311 314 314 313 310 310 320 330 331 331 332 332 333 333 333 334 335 334 334 335 337 337 337 337 336 337 338 337 335 334 334 332 331 330 329 331 332 331 331 330 328 329 329 330 331 332 333 333 332 333 332 332 332 331 330 330 330 330 329 328 328 327 326 326 327
313 313 313 313 313 313 313 313 313 314 312 313 313 312 311 311 312 312 313 314 312 311 313 313 312 312 317 326 331 331 331 332 332 332 334 335 334 335 336 335 336 337 336 337 337 336 337 338 336 334 334 335 334 332 331 331 331 332 331 331 330 329 329 329 330 331 331 332 331 331 331 331 331 332 331 330 330 330 329 328 328 327 326 327 327 327
313 312 313 312 312 312 313 313 313 313 313 313 312 311 313 315 313 312 315 317 314 311 312 313 312 313 318 326 330 330 331 331 330 331 333 335 335 335 336 336 337 337 336 336 336 335 336 336 334 334 335 336 333 331 331 330 331 331 331 331 330 330 330 329 330 330 331 331 331 330 330 330 331 332 332 331 330 330 329 328 327 327 327 327 326 327
313 313 313 312 312 312 312 312 312 312 313 313 311 312 313 315 314 313 313 315 313 312 312 312 312 311 314 322 329 331 331 332 330 330 332 333 334 335 335 334 334 335 336 335 335 334 335 334 334 334 335 335 333 330 330 330 331 332 331 330 330 330 331 331 331 331 331 331 330 329 330 330 330 332 333 330 330 329 329 328 327 327 328 327 326 326
314 313 313 312 312 312 311 312 312 312 312 312 312 313 314 313 313 313 313 313 313 312 312 312 312 311 312 321 329 330 332 332 331 330 330 331 332 333 334 334 333 333 333 333 333 333 333 333 333 333 334 334 333 331 331 331 332 332 331 330 330 331 331 331 331 331 331 331 330 330 330 330 330 332 332 330 329 329 329 328 327 328 328 327 326 326
315 314 314 313 313 312 312 312 311 311 312 312 312 313 314 314 313 313 313 313 312 311 312 312 312 317 322 325 329 330 331 332 331 331 330 329 331 332 332 334 333 333 333 332 332 331 331 332 332 332 333 334 333 332 332 331 332 332 331 331 330 331 331 331 331 331 331 330 330 331 331 330 331 332 331 330 329 328 328 327 327 328 328 327 326 326
315 316 315 313 313 312 312 313 312 313 313 311 312 312 313 314 314 314 314 312 311 311 314 312 312 322 329 326 327 330 331 331 331 331 330 329 330 329 330 331 331 333 333 332 332 331 331 332 333 332 333 333 333 333 332 332 332 331 331 331 331 331 331 331 331 331 331 330 330 330 330 330 330 331 331 329 328 328 328 327 327 328 327 327 326 326
315 316 315 314 312 311 312 315 316 316 316 314 313 312 312 313 313 313 313 312 311 311 313 312 313 324 328 324 326 329 330 330 330 330 330 329 329 328 328 329 329 330 330 331 331 330 331 333 332 332 333 332 332 332 332 332 332 332 332 331 331 331 332 331 331 331 331 330 329 329 330 330 331 330 330 329 328 328 328 327 327 327 327 326 326 325
316 315 315 314 313 312 315 317 316 316 317 316 315 315 315 315 313 313 313 314 312 311 313 312 314 325 327 325 326 328 329 330 330 330 330 329 329 328 326 325 324 324 326 327 327 327 330 331 331 331 332 332 332 332 331 331 331 332 332 331 331 332 331 331 331 331 332 332 331 330 330 330 331 330 329 328 329 328 327 327 326 326 326 325 325 324
315 315 315 315 313 314 316 316 316 316 316 316 317 318 317 316 316 316 316 317 314 312 314 312 314 326 328 325 327 329 329 329 327 328 329 328 326 324 322 321 321 320 322 323 323 324 327 328 327 328 329 330 330 330 330 331 331 331 331 331 331 331 331 331 331 332 332 332 331 331 331 330 330 330 328 329 328 327 326 327 326 326 325 324 323 323
314 315 316 315 315 316 317 317 316 316 317 319 321 321 318 318 320 318 317 317 314 313 314 312 317 329 329 326 327 328 326 325 323 322 322 323 322 321 320 319 318 318 319 319 320 322 324 325 325 325 326 327 328 328 328 329 330 330 330 332 332 331 331 331 331 331 331 332 331 331 330 329 330 330 329 329 328 327 327 326 326 326 325 323 322 322
316 318 318 317 318 319 318 318 316 316 318 320 321 321 319 320 321 320 316 313 313 315 314 312 320 328 329 327 327 326 324 322 321 319 318 318 318 318 318 317 316 316 317 317 318 320 321 322 324 325 325 325 325 326 327 328 329 328 328 329 331 331 331 331 331 331 331 330 328 326 326 327 328 330 330 329 328 327 327 326 326 326 325 323 322 321
319 321 321 321 321 319 318 318 317 317 319 321 322 322 321 321 322 322 317 315 317 317 315 318 325 330 329 327 325 323 322 321 319 318 317 316 316 316 316 315 315 315 315 315 316 316 317 318 319 322 324 324 324 325 325 326 327 327 327 326 328 330 330 330 331 331 330 328 325 324 324 324 325 328 330 329 328 327 326 326 325 325 324 323 322 320
319 319 321 323 321 318 318 318 317 319 321 322 323 323 323 323 324 323 320 321 322 319 317 324 331 331 326 322 320 319 319 318 316 315 314 314 314 314 314 314 314 314 313 313 313 313 313 313 314 316 319 321 322 322 323 324 325 325 325 326 326 328 328 329 330 329 329 328 326 325 323 322 324 326 327 328 327 326 326 325 325 325 324 323 321 319
319 319 320 321 319 317 318 318 317 319 320 320 321 323 323 324 325 326 324 324 326 323 322 327 331 328 321 316 315 315 315 314 313 312 312 312 312 312 313 312 312 311 311 311 310 310 310 310 311 313 314 315 317 318 320 321 321 323 324 325 326 326 326 327 328 328 328 327 326 325 323 323 324 323 323 325 326 325 325 324 324 323 323 322 321 320
320 320 319 319 318 317 318 318 318 318 319 319 319 319 321 322 323 323 323 323 325 326 326 326 325 320 315 313 313 312 311 311 311 310 311 310 310 310 311 310 310 309 309 309 308 309 308 308 309 310 310 311 312 313 315 315 316 318 320 321 323 324 325 325 326 326 326 325 324 323 323 324 324 322 322 324 325 324 324 324 323 323 322 321 320 320
320 320 319 319 319 318 318 318 318 319 319 319 317 317 318 320 321 321 320 321 323 324 324 322 321 317 313 311 311 310 310 310 310 309 310 309 309 309 309 308 308 308 307 307 307 307 307 307 308 308 307 308 308 310 311 312 312 313 315 317 319 321 323 323 324 324 324 324 323 323 323 323 322 322 322 322 322 322 322 322 322 322 322 320 318 318
320 319 319 319 320 319 318 318 319 319 319 319 317 315 316 319 320 319 318 318 321 323 322 322 322 318 312 310 310 310 309 309 308 308 308 308 308 307 307 307 306 306 306 305 305 306 305 306 306 307 306 306 306 308 308 309 310 310 312 313 314 316 318 319 320 321 322 323 323 322 322 322 321 320 320 319 319 319 319 318 319 320 320 319 317 317
320 319 318 318 320 319 318 318 319 319 320 320 315 312 313 315 317 318 317 316 316 318 321 322 320 315 311 310 310 309 308 308 307 307 306 306 306 306 306 305 304 304 304 304 304 304 304 305 305 305 305 305 305 306 306 307 307 308 309 310 311 313 315 315 316 316 318 319 320 320 320 320 320 320 319 318 317 317 316 316 317 317 318 317 316 316
320 319 319 319 319 319 319 318 318 320 321 318 311 309 311 312 313 316 316 314 313 315 317 316 314 311 310 309 308 307 307 306 305 305 305 305 305 304 304 304 303 303 302 302 302 303 304 304 305 304 304 305 305 305 305 305 305 306 307 308 309 310 311 312 312 313 313 314 315 316 317 317 317 318 318 317 316 316 316 315 316 316 317 317 317 316
319 319 319 319 318 319 318 318 321 322 318 313 309 309 309 310 311 313 313 311 311 313 314 313 310 308 307 305 305 304 304 304 303 303 303 303 303 303 303 303 302 302 302 301 301 302 303 303 303 304 304 304 304 304 304 305 305 305 305 306 307 307 307 308 308 309 310 310 310 312 314 315 315 315 315 315 315 316 315 315 316 317 318 318 318 317
318 318 318 317 317 318 318 318 321 319 313 311 311 309 308 309 310 311 314 313 310 310 311 310 308 306 304 304 304 303 303 303 303 302 302 302 302 302 302 302 301 301 301 301 301 301 301 302 302 303 303 303 303 303 303 304 304 304 303 303 304 305 305 306 306 306 307 307 307 308 309 311 312 312 312 313 314 314 314 313 314 315 316 317 316 315
317 318 316 316 316 317 318 318 317 316 314 312 311 308 307 308 307 308 313 313 309 308 309 308 306 305 304 304 304 304 304 304 303 302 302 301 301 301 301 301 301 301 301 301 301 301 300 301 301 301 302 302 302 302 302 302 302 302 302 302 302 302 303 304 304 303 304 304 305 306 306 307 308 308 308 310 311 311 311 310 310 310 311 311 310 309
315 317 316 315 315 316 317 317 316 318 317 312 310 308 306 306 305 304 309 312 308 306 307 307 306 305 305 305 304 305 307 306 304 303 301 301 301 301 301 301 301 301 301 301 301 301 300 300 300 300 301 301 301 301 300 300 301 301 301 301 301 301 301 302 302 302 302 302 302 303 304 305 305 305 305 306 306 306 307 307 307 307 308 308 307 306
314 316 314 315 316 315 317 318 317 318 315 310 308 307 306 306 305 304 311 315 309 305 307 307 306 305 305 306 305 307 309 307 304 302 301 300 300 301 300 300 300 300 300 300 300 300 300 300 300 299 300 300 301 300 299 298 299 299 299 300 300 300 300 300 300 300 300 300 301 301 301 301 301 302 302 302 302 302 303 303 304 305 306 306 305 305
313 314 314 315 316 315 316 316 314 313 311 308 307 307 307 307 306 309 317 317 309 306 307 306 306 306 306 306 307 308 309 307 304 302 301 300 300 300 300 300 300 300 300 299 299 299 299 299 299 299 299 300 300 300 299 298 298 299 299 299 299 299 299 299 299 299 299 299 300 300 301 301 300 300 299 299 299 299 300 300 300 301 302 302 303 303
311 312 313 315 315 314 315 315 313 311 309 307 306 306 306 307 309 314 317 311 306 307 307 306 306 307 307 308 308 308 306 304 302 301 300 300 300 300 300 300 300 300 299 298 298 298 298 298 298 298 298 299 299 299 299 299 298 299 299 298 298 298 298 298 298 299 298 298 298 298 299 300 300 300 300 300 299 298 298 298 298 299 300 301 301 301
311 311 312 312 312 313 314 314 313 311 308 305 306 306 307 310 313 313 309 305 305 307 307 306 306 307 307 307 307 305 303 301 301 300 300 300 300 300 300 300 300 299 299 298 297 297 298 298 298 297 297 298 298 299 299 298 298 298 298 298 298 297 298 298 298 298 298 298 298 298 297 298 298 299 299 300 300 300 299 298 298 299 299 299 299 299
309 311 311 310 310 311 312 313 314 312 307 304 306 307 307 309 309 306 303 305 306 307 307 307 306 307 306 305 304 303 302 301 301 301 300 300 300 300 300 300 299 299 298 298 298 298 298 298 298 297 297 297 297 298 298 298 298 298 298 298 297 297 297 297 298 298 298 299 298 298 298 297 297 298 298 299 299 300 300 300 300 300 300 300 300 300
308 310 310 308 308 310 312 311 310 308 304 303 305 306 305 304 304 303 303 305 306 306 306 306 305 305 305 304 303 302 302 301 301 301 300 300 300 299 299 299 299 298 298 298 298 298 298 298 298 298 298 297 297 297 297 297 298 298 297 297 297 296 296 297 297 298 298 298 298 298 298 298 298 299 299 299 299 300 301 301 301 301 301 301 302 302
307 308 308 307 307 308 308 307 305 303 302 303 303 304 304 303 303 303 303 303 304 305 305 305 304 304 304 303 303 302 302 301 301 300 300 300 299 299 299 299 298 298 298 298 297 297 297 297 297 297 298 297 298 297 297 297 297 298 297 297 297 297 297 297 298 298 297 297 298 298 298 298 299 299 299 299 299 300 300 300 301 301 301 301 302 302
306 307 307 307 306 306 305 304 304 303 303 303 303 303 304 303 303 303 302 302 302 302 302 303 302 302 302 302 302 302 302 301 300 300 299 299 300 300 299 299 298 298 298 297 297 297 297 297 297 297 297 297 297 297 297 297 297 297 297 298 298 298 298 298 298 298 297 297 297 297 298 298 299 299 299 299 299 299 299 299 300 300 300 301 301 301
305 306 306 306 306 306 306 304 304 304 304 304 304 303 303 302 302 302 301 301 300 300 300 300 300 301 301 301 301 302 302 301 301 300 299 299 300 300 299 299 299 298 298 298 298 297 297 297 297 297 297 297 297 297 297 297 297 297 297 297 297 298 298 298 298 298 298 297 297 297 298 298 298 299 299 298 298 299 298 299 299 299 299 300 300 300
305 305 305 305 305 305 305 305 304 304 304 304 304 303 303 302 301 300 300 300 300 299 299 299 300 300 301 301 301 301 301 301 301 300 300 300 301 300 300 299 299 299 299 298 298 298 298 298 298 298 298 298 297 297 297 297 297 297 297 297 298 297 297 297 297 297 297 297 297 297 297 297 298 298 299 298 298 298 298 298 299 299 299 298 298 299
304 304 304 304 304 304 305 304 304 304 304 303 303 303 303 303 302 300 300 300 299 299 298 299 299 299 300 300 301 301 300 300 301 300 300 301 301 301 300 300 299 299 299 299 299 299 299 299 299 299 299 298 298 298 298 298 298 298 298 298 298 298 298 298 298 297 297 297 297 297 297 297 298 298 298 299 298 297 297 297 297 298 298 297 296 296
304 304 304 303 303 304 304 304 305 305 303 302 302 302 302 302 302 302 301 300 300 300 299 299 299 299 299 299 300 301 301 300 301 301 300 301 301 301 300 300 299 299 299 299 299 299 299 299 299 299 299 299 299 299 299 299 298 298 298 298 298 298 299 299 299 299 298 298 298 297 298 298 298 298 298 299 299 298 297 296 296 296 297 296 295 294
304 305 304 303 303 304 304 304 305 304 303 302 302 302 302 302 302 302 302 301 301 300 301 300 300 299 299 299 299 301 301 300 300 300 300 300 300 300 300 300 300 299 299 299 299 299 299 299 299 299 299 299 299 299 299 299 299 298 298 298 298 298 298 299 299 299 299 298 297 297 298 298 298 298 298 299 299 299 299 298 297 296 295 295 295 294
Wind_Speed
6 6 8 9 9 11 12 10 7 2 1 2 3 4 5 5 4 3 3 4 3 6 8 9 10 10 10 8 6 5 6 7 8 9 10 11 11 10 11 12 12 12 10 11 16 19 20 19 18 18 18 19 21 21 21 20 19 22 21 18 21 24 22 20 20 18 16 17 17 15 15 15 15 14 13 12 11 10 10 10 11 10 10 10 11 10
6 7 9 11 9 7 8 8 5 3 4 6 6 6 6 7 4 2 4 5 3 5 8 10 10 11 11 10 6 6 7 9 10 11 12 13 12 11 11 12 12 10 10 12 15 17 20 20 19 19 18 19 22 23 23 21 21 22 22 21 23 23 22 21 22 20 18 20 19 17 17 17 16 15 13 12 11 10 10 10 10 10 10 11 11 11
7 9 11 9 5 4 6 6 6 6 6 7 6 6 6 4 2 3 5 4 3 4 7 8 9 10 11 12 9 7 8 9 10 12 12 12 12 12 12 12 12 11 11 13 14 15 19 21 20 20 19 20 21 21 22 21 22 25 28 27 23 21 22 22 22 21 21 22 20 19 19 17 17 15 13 11 11 10 10 11 11 10 10 11 11 10
7 8 9 8 6 7 7 6 7 6 6 7 6 6 6 2 1 4 5 4 3 5 7 7 7 8 10 12 11 10 10 10 11 13 13 12 12 13 13 13 12 14 14 14 14 14 16 18 19 21 20 20 19 20 21 22 24 29 30 26 22 21 21 20 21 21 21 22 20 19 18 15 14 13 12 11 11 10 10 11 11 10 10 10 10 10
6 2 5 9 9 9 8 8 9 7 6 8 8 8 7 4 4 6 4 3 5 8 8 7 7 8 11 12 12 10 10 11 11 12 12 12 12 12 13 13 13 13 12 13 14 14 15 16 19 21 20 19 19 21 22 23 26 29 26 22 21 21 19 19 21 22 21 20 18 17 16 13 11 12 13 12 11 11 11 11 11 10 11 10 10 10
6 5 6 9 10 11 10 9 10 9 6 7 9 9 10 9 9 9 8 5 6 7 8 8 7 7 9 12 12 9 9 11 11 12 13 13 13 12 13 14 12 12 11 12 13 13 14 16 18 20 19 18 20 21 22 24 29 28 24 22 21 20 20 19 21 22 21 20 19 19 18 15 14 13 13 13 13 13 13 12 11 10 10 9 10 9
5 8 8 9 8 10 10 8 10 9 7 6 4 6 9 10 10 9 7 6 6 3 5 7 8 6 5 8 10 10 10 13 12 12 13 12 13 14 14 14 13 12 11 11 13 13 13 15 17 18 18 19 20 22 22 25 30 28 24 24 22 19 19 18 19 21 21 20 19 21 20 18 17 16 14 13 13 14 13 12 12 10 9 9 9 9
6 9 9 9 8 9 8 7 8 9 8 3 4 2 6 7 8 8 8 8 5 2 4 8 8 6 6 6 7 9 11 13 13 13 13 13 14 16 15 15 13 12 10 10 11 13 13 15 18 18 19 21 21 21 22 24 28 28 24 24 19 15 17 17 17 20 20 20 20 22 20 18 17 16 14 14 14 13 13 13 12 11 10 9 9 9
9 12 11 12 10 7 7 6 7 9 9 2 5 1 4 4 6 7 7 7 4 3 5 9 8 6 8 7 6 8 11 14 14 13 12 12 15 15 15 15 13 11 10 10 10 12 13 15 18 18 17 19 18 18 20 23 28 30 26 24 19 14 16 16 15 18 19 19 20 20 17 14 14 13 14 15 14 13 13 13 12 11 10 9 9 8
6 7 8 12 11 8 10 9 7 10 8 1 3 3 3 3 5 6 7 6 4 4 8 9 9 8 7 6 7 8 10 10 7 5 5 7 10 12 13 12 11 10 9 10 9 10 13 14 16 15 12 14 15 14 14 13 19 23 18 18 21 19 17 16 18 19 17 17 18 17 16 15 13 13 14 14 13 13 14 14 12 11 11 10 9 8
5 2 2 8 9 7 8 7 6 10 6 1 3 6 5 5 5 5 5 5 4 7 9 8 10 8 8 6 5 4 2 3 3 2 3 4 5 8 10 11 11 9 7 8 8 8 10 11 11 9 8 11 11 14 15 9 12 16 14 17 21 21 19 18 20 19 16 17 18 16 18 20 17 16 15 14 14 14 14 14 13 12 11 10 9 9
6 5 3 6 7 5 5 4 5 7 6 4 6 7 5 5 5 5 6 5 7 7 5 5 8 9 9 6 0 4 4 4 5 4 4 4 3 5 8 9 9 8 7 7 7 7 7 7 6 7 9 10 13 22 19 12 10 14 16 20 18 15 16 17 16 16 16 16 16 16 18 18 16 17 15 15 14 14 14 14 13 11 10 9 9 9
7 8 8 8 7 7 7 6 6 6 7 7 7 6 7 6 6 7 7 6 8 5 4 4 4 7 9 4 4 6 5 5 5 5 6 4 3 3 7 9 8 7 6 6 6 6 7 7 7 8 9 11 19 22 16 14 11 13 17 22 20 16 15 15 15 17 18 18 15 15 15 15 16 15 14 14 14 13 14 13 13 12 11 10 10 10
7 9 11 11 8 9 10 7 7 7 8 9 8 7 8 6 6 8 7 7 8 4 5 3 3 6 9 1 6 6 6 6 5 5 5 2 2 3 6 8 7 7 7 6 7 7 6 7 8 10 11 14 20 19 14 11 11 13 17 21 22 20 19 17 19 21 23 22 17 13 12 13 15 15 14 14 14 13 13 12 12 11 10 11 11 11
8 6 9 12 8 10 14 11 8 6 7 10 9 8 8 7 6 7 6 6 7 4 4 4 4 7 7 1 6 5 6 7 6 6 5 4 4 5 6 8 8 8 8 6 7 7 7 9 11 13 13 13 16 17 15 13 14 16 18 21 22 23 23 21 22 25 26 23 19 15 13 11 12 14 13 12 13 14 13 12 13 11 10 11 11 11
8 5 7 10 5 9 16 14 12 8 5 7 6 7 8 7 6 4 2 2 3 4 3 5 5 4 1 4 6 6 6 7 7 7 7 7 7 6 6 6 7 8 8 7 7 8 9 10 13 14 13 12 13 15 14 13 15 18 20 22 23 23 23 21 20 24 26 24 21 19 18 15 12 13 13 12 13 14 13 13 13 12 12 12 11 11
7 3 7 9 5 9 12 11 13 10 5 4 6 8 5 4 6 4 1 2 0 6 4 4 6 4 5 4 4 5 5 6 7 7 8 8 8 8 7 6 5 5 6 6 6 7 8 10 13 14 13 12 13 14 12 11 14 17 19 22 22 21 21 21 20 20 21 25 25 21 23 21 15 14 14 13 13 14 13 13 13 13 12 12 11 11
5 2 7 9 9 9 4 4 9 10 6 4 5 5 3 1 5 5 4 3 5 7 5 4 7 7 5 3 2 2 5 7 6 7 8 8 8 8 7 6 6 6 6 7 8 8 8 11 14 14 14 14 16 15 13 13 14 16 18 19 21 20 20 20 20 19 19 25 27 23 24 24 19 17 16 13 14 14 13 13 13 13 13 12 11 11
4 5 5 6 6 8 5 4 7 8 9 7 4 2 3 4 5 5 5 5 6 7 5 5 7 7 4 2 3 1 4 5 5 6 7 7 7 6 5 6 7 8 8 8 8 8 9 10 12 13 13 14 17 17 16 16 16 16 15 16 17 18 19 19 20 21 19 23 27 26 26 25 21 19 16 14 15 15 14 14 13 13 13 12 12 12
4 5 3 5 5 7 7 7 7 8 10 8 6 5 4 4 4 4 5 5 6 6 5 5 5 2 2 2 3 2 4 4 5 6 6 8 8 7 6 5 5 7 8 7 7 7 9 9 10 12 12 12 15 16 17 17 17 15 13 13 14 16 18 18 19 21 21 24 28 28 26 24 22 19 16 15 16 15 14 14 13 13 13 13 12 12
4 4 3 5 7 7 6 6 6 6 7 8 7 7 6 4 3 4 4 5 5 5 5 5 4 2 4 3 1 3 4 3 4 5 5 6 7 7 7 6 5 5 5 5 5 6 8 9 10 11 11 11 12 14 15 15 16 15 12 11 13 16 18 19 19 21 21 23 26 26 25 24 21 18 16 16 17 16 14 14 13 13 13 13 12 12
5 5 6 4 6 7 4 3 2 3 3 5 7 8 8 7 5 6 6 6 5 6 4 5 3 3 4 2 1 2 2 2 2 3 4 5 6 7 8 9 10 9 7 7 6 5 5 6 9 10 10 11 11 12 13 13 15 16 14 12 13 16 18 20 20 21 20 20 22 24 24 22 20 19 18 18 17 16 14 14 13 13 12 12 12 12
2 3 6 7 6 4 4 7 3 2 2 4 5 5 6 6 7 7 6 4 5 5 4 5 4 2 2 1 1 2 1 2 2 2 3 5 7 9 11 11 12 11 10 10 9 7 5 3 1 4 6 9 10 10 10 12 15 16 14 12 14 16 19 20 21 21 20 19 20 21 21 19 18 19 20 19 17 16 15 14 13 12 12 12 12 12
2 4 6 7 6 3 4 5 4 1 2 5 3 2 4 5 5 6 4 2 4 5 4 6 5 3 2 1 2 3 4 6 6 6 6 7 8 10 10 11 11 11 11 10 9 8 8 9 7 4 4 7 8 7 6 7 11 14 12 10 12 15 18 20 20 19 19 19 19 19 19 18 18 19 20 18 16 16 15 14 13 12 12 12 12 12
4 5 6 6 7 7 6 7 6 4 4 3 2 1 3 4 4 5 4 4 6 6 5 6 3 3 3 2 5 7 8 9 9 9 9 9 8 8 9 9 10 10 10 10 9 8 9 10 7 3 4 8 8 7 5 3 5 8 10 9 11 12 15 17 17 17 17 16 15 13 12 11 12 16 19 18 16 16 15 14 14 12 11 12 12 11
4 3 4 6 7 7 7 6 5 5 4 3 2 3 4 3 2 4 5 6 7 6 7 6 2 4 5 5 7 8 8 9 8 8 9 8 7 7 8 8 8 9 10 10 9 8 9 10 8 4 4 7 8 7 5 2 2 3 5 6 8 11 14 15 15 15 15 14 14 14 12 12 10 11 16 17 16 17 16 15 14 13 11 11 11 11
2 1 1 3 2 2 2 2 3 1 4 4 3 4 5 4 2 4 5 5 3 3 6 4 7 10 8 6 8 7 7 8 7 7 8 8 7 7 7 8 8 8 9 9 9 9 10 11 10 9 7 9 10 8 5 3 2 3 5 4 5 8 12 14 14 15 15 16 17 17 18 20 16 11 12 15 16 17 16 15 14 12 11 11 11 11
3 3 2 4 5 5 4 3 4 2 4 4 5 5 6 6 2 3 3 3 4 3 4 3 11 13 8 7 7 7 7 7 7 7 7 7 7 7 7 8 10 10 10 10 10 11 11 10 10 11 12 12 12 10 8 7 5 6 7 8 7 7 10 13 15 15 16 17 18 18 19 20 17 12 10 11 13 15 15 14 13 11 10 10 10 10
4 3 1 3 6 9 7 3 4 6 7 7 8 7 7 8 5 3 3 5 6 2 2 4 10 11 8 7 6 6 6 6 6 7 6 6 7 7 7 9 11 11 11 11 11 11 11 9 8 10 13 14 13 12 11 10 9 9 9 9 9 9 10 12 14 15 16 16 16 16 17 16 14 15 13 9 10 13 13 13 12 11 11 10 9 8
3 2 4 5 6 7 7 4 2 6 9 9 10 9 7 7 7 7 6 6 6 5 5 8 12 11 7 5 6 6 5 5 6 6 7 7 8 8 8 10 10 10 10 10 10 10 10 10 10 10 12 13 13 13 13 13 12 12 13 11 10 11 12 12 12 12 14 15 15 16 17 15 14 16 14 11 11 12 12 12 12 11 11 10 8 7
5 3 7 7 6 5 2 2 0 5 9 11 11 10 8 5 6 6 6 5 4 5 7 9 11 8 4 4 6 5 5 6 7 7 8 8 8 8 9 10 10 10 10 10 10 10 10 11 12 12 13 13 14 14 13 14 13 14 15 15 14 14 13 15 16 16 16 18 17 17 17 17 18 19 19 17 15 15 15 14 13 13 12 11 10 8
5 3 7 5 4 5 3 3 3 4 8 11 11 12 10 7 4 5 5 5 4 4 5 6 5 4 4 5 6 6 7 8 8 8 7 7 8 8 9 9 9 10 10 10 10 10 10 11 12 13 14 14 15 15 14 14 14 15 17 18 18 16 17 19 19 17 17 19 19 18 18 18 20 21 21 21 20 19 18 15 13 12 10 10 10 9
3 3 6 6 5 6 6 5 3 3 4 4 7 9 9 8 6 3 4 6 7 3 2 2 3 5 6 6 6 7 8 9 8 8 7 7 8 9 9 10 10 10 10 10 10 10 10 10 12 14 14 14 16 16 14 15 15 15 18 21 21 21 22 23 20 17 17 17 17 16 16 17 18 18 18 19 18 16 14 11 8 6 6 7 7 6
3 5 5 5 4 6 8 7 3 3 4 2 4 6 6 7 8 5 4 6 7 4 3 5 7 8 7 6 7 7 8 9 9 9 8 8 7 8 9 10 10 10 11 10 10 10 10 11 12 13 14 15 16 16 15 17 19 20 21 22 23 23 24 24 22 20 18 17 17 16 15 15 16 15 16 16 16 15 14 12 10 8 8 8 8 7
4 5 4 2 1 5 8 8 5 2 2 3 2 7 6 4 7 6 3 6 6 4 5 7 8 8 8 8 9 8 8 10 11 12 11 10 8 8 9 10 10 11 11 11 11 12 12 13 14 14 13 13 14 15 15 16 18 22 24 25 25 25 25 26 25 22 19 18 18 18 17 17 18 18 18 17 17 17 15 13 12 12 12 12 12 11
4 4 2 1 1 4 6 4 3 4 4 3 2 6 7 3 6 5 1 5 7 4 4 7 8 8 10 10 10 9 9 11 12 12 12 11 10 9 9 10 10 11 11 11 12 13 13 14 14 14 14 13 14 15 16 16 16 20 23 24 25 25 24 25 26 24 22 21 19 18 18 17 18 19 19 20 21 20 18 17 15 14 14 14 15 15
5 3 3 2 0 1 3 4 4 6 5 4 2 5 5 3 4 4 1 3 6 4 2 6 9 10 10 10 10 10 8 9 10 10 11 11 11 10 11 12 12 12 13 13 13 12 12 14 16 16 15 16 17 18 18 18 18 21 24 23 23 23 22 23 23 21 22 22 21 21 20 19 19 19 18 19 21 20 20 19 17 16 16 17 17 17
5 2 2 2 1 1 3 5 4 4 4 5 6 6 5 3 3 3 2 1 4 3 1 6 9 10 10 10 10 8 5 4 7 7 8 9 10 11 12 13 13 13 14 13 12 12 12 14 17 18 17 18 19 20 23 24 23 25 26 23 21 22 22 21 20 19 19 19 19 21 22 22 22 21 18 17 17 18 19 18 17 17 18 17 17 16
3 1 2 2 2 1 2 3 3 2 3 5 8 9 8 4 2 3 2 1 3 2 3 6 8 9 9 9 7 5 3 3 5 4 4 7 10 11 11 11 12 12 13 12 12 12 12 13 15 18 19 19 18 19 23 29 29 27 25 22 21 22 22 21 20 19 19 19 19 20 21 22 22 22 21 19 18 18 18 17 16 16 15 14 14 14
6 3 0 2 4 3 3 4 4 4 4 7 11 10 7 2 3 4 2 3 4 2 3 6 7 9 9 7 2 2 1 4 6 6 6 8 10 12 11 11 11 11 12 12 13 13 12 12 14 17 18 17 16 15 18 25 29 26 21 20 21 21 20 19 18 18 18 19 18 18 17 17 18 19 19 18 18 18 17 16 15 15 14 12 12 13
5 4 3 4 5 5 6 6 4 3 3 9 12 9 6 2 4 2 1 3 5 4 3 6 7 9 7 2 1 3 4 6 10 10 9 9 10 11 12 12 12 12 12 13 15 16 15 15 15 16 15 14 14 14 14 20 24 21 18 20 22 20 18 17 16 16 17 18 18 17 16 15 15 14 14 13 13 13 13 13 13 13 12 10 10 11
2 3 5 5 3 3 4 5 5 4 4 11 12 7 5 3 2 2 4 4 6 3 3 5 7 8 3 2 3 6 9 12 12 11 10 9 9 10 11 12 12 11 11 13 15 16 15 15 17 18 18 16 15 14 14 18 21 19 18 20 20 17 16 16 15 15 15 16 17 17 16 15 15 14 12 11 11 10 10 10 10 10 9 8 8 8
4 2 4 5 3 2 4 5 4 3 5 14 12 5 5 5 2 3 6 5 3 2 4 5 5 4 3 5 8 11 13 13 12 11 10 9 9 10 11 10 10 10 10 11 12 12 11 12 14 17 18 18 18 18 17 18 19 18 18 18 16 15 15 15 14 13 13 14 14 14 13 14 14 13 12 11 10 9 8 8 7 7 7 6 6 6
5 3 4 3 3 2 4 5 3 2 5 10 9 4 4 5 3 3 3 4 5 4 3 5 5 4 6 9 11 11 12 12 11 11 10 9 9 10 10 8 9 9 10 10 11 10 10 12 12 13 14 15 17 19 19 19 18 17 17 16 14 14 15 13 12 13 13 12 12 12 12 12 12 11 10 9 8 7 7 6 6 5 5 5 4 4
7 6 6 6 5 6 6 5 3 2 4 6 6 5 5 4 3 3 4 5 6 6 4 6 7 7 8 10 11 11 11 11 11 11 10 9 9 9 8 8 9 10 10 10 11 11 11 12 13 14 14 14 14 14 15 16 17 16 14 12 10 11 11 11 11 12 12 12 12 11 11 11 11 10 9 8 8 8 7 7 6 6 5 5 4 4
6 4 4 7 9 10 9 7 6 6 6 7 7 7 7 7 6 6 7 6 6 7 7 7 9 10 9 10 10 10 10 10 10 9 9 9 9 9 9 9 10 10 11 11 12 12 13 13 14 15 15 15 14 14 13 13 14 14 12 10 9 9 9 10 11 11 11 11 12 12 11 10 10 10 10 9 8 8 8 7 7 6 5 5 5 4
6 4 4 6 5 5 6 8 8 8 8 8 9 9 10 10 9 8 8 7 8 9 10 10 11 11 10 9 9 9 9 10 10 9 8 8 9 9 9 10 10 10 11 11 11 11 12 13 13 13 13 13 12 12 12 12 12 12 11 10 10 10 10 10 11 11 11 11 11 12 12 11 10 10 10 10 9 8 8 8 7 7 7 6 6 5
4 2 5 8 7 5 7 10 10 11 11 10 9 10 10 10 10 10 9 10 11 12 12 13 13 10 8 7 6 7 8 8 9 9 8 8 9 10 9 10 10 10 10 9 9 10 10 11 11 11 11 11 10 9 10 10 10 9 9 9 9 9 10 11 10 10 10 10 10 10 10 10 11 9 9 10 10 10 9 8 8 8 8 8 7 6
1 1 4 8 9 8 9 9 9 10 11 11 11 11 11 10 11 11 11 12 13 12 13 13 13 12 9 7 7 5 6 6 6 7 8 8 9 9 9 9 9 9 8 8 8 8 9 10 10 10 10 9 9 8 9 9 9 8 8 8 7 7 8 9 8 8 8 8 8 8 8 8 9 8 7 7 8 9 10 10 8 6 6 7 6 4
3 4 4 5 6 6 7 6 5 6 8 8 10 11 11 11 12 12 12 13 12 12 12 12 12 11 10 8 7 6 5 5 6 6 6 7 8 8 8 8 8 8 7 7 8 8 8 8 9 9 9 9 8 8 9 9 9 8 8 8 8 7 7 7 6 7 7 7 7 7 6 6 6 7 6 6 5 5 7 9 10 9 6 5 6 6
5 5 4 4 6 7 7 7 6 7 8 8 9 10 10 10 11 11 12 12 11 11 11 11 11 9 7 7 7 6 5 4 5 4 4 4 5 7 7 7 7 7 7 8 8 8 8 8 8 8 8 8 8 8 8 8 8 9 9 9 9 9 8 7 6 6 6 7 7 6 5 5 6 5 5 5 5 4 4 5 8 11 10 8 7 7
Wind_Direction
198 205 202 215 216 210 207 214 238 280 311 270 252 250 249 249 241 197 235 264 286 281 261 248 250 252 248 231 199 185 205 215 213 211 210 212 209 204 207 212 215 208 186 186 200 198 197 199 197 197 197 194 193 190 189 182 177 185 186 185 192 194 194 190 184 182 180 177 179 183 187 190 185 179 180 182 183 183 181 178 176 178 182 184 185 188
202 220 216 219 225 214 196 200 225 239 238 248 250 253 247 246 247 199 242 269 256 260 260 251 252 249 248 245 214 190 220 224 219 218 213 212 212 211 212 214 218 212 188 186 194 194 198 201 198 199 199 197 196 192 187 182 180 185 186 189 193 195 195 191 187 185 182 181 182 184 185 188 185 179 178 180 181 181 179 177 176 180 184 183 184 182
203 227 227 216 201 173 174 191 205 220 232 239 243 253 254 249 262 226 226 244 225 241 256 252 255 253 249 249 234 212 228 236 230 227 223 214 212 214 214 213 214 211 200 193 189 187 198 204 201 202 204 202 199 191 187 184 181 185 192 194 190 193 198 194 189 187 185 183 183 185 185 186 185 178 175 176 175 175 173 174 175 177 179 178 179 176
205 226 219 187 162 172 177 186 200 216 229 233 239 247 248 228 248 236 190 180 221 252 269 276 273 263 254 250 246 233 232 241 238 234 231 219 215 216 215 213 208 207 204 199 194 186 194 202 202 204 206 204 199 190 185 180 178 186 195 195 188 191 195 194 190 188 188 185 183 186 184 182 180 171 168 165 164 169 168 170 173 172 172 172 175 174
220 172 165 172 177 194 196 192 206 226 232 230 235 248 261 254 255 264 248 242 260 248 246 263 269 257 244 239 240 228 217 231 238 235 231 222 219 220 219 219 211 209 206 201 203 195 191 197 202 206 206 202 200 191 182 178 179 187 190 190 191 191 189 192 191 186 185 184 181 181 177 174 168 158 161 162 161 168 168 168 170 170 169 170 173 175
227 117 145 189 190 203 209 206 213 225 242 237 223 234 257 263 260 262 258 257 264 239 204 217 249 246 226 226 231 217 202 220 225 225 228 222 217 216 221 222 212 211 207 201 207 201 195 196 200 206 204 201 202 195 184 178 183 186 181 186 194 190 188 192 192 186 182 182 180 178 176 174 169 164 169 168 165 169 167 167 168 167 169 171 174 175
219 146 169 195 189 204 217 223 216 214 244 250 201 216 243 253 253 250 240 226 249 253 157 196 247 254 216 215 220 212 213 220 214 216 226 223 217 215 217 219 211 208 205 201 204 201 199 197 199 205 203 204 205 200 189 179 185 185 173 181 191 187 188 188 189 189 182 182 183 181 182 180 172 170 173 170 166 168 164 163 165 166 170 174 174 173
201 177 183 195 199 209 216 222 203 200 238 242 105 176 241 241 235 229 225 222 244 294 153 197 236 261 250 227 207 207 221 227 219 219 224 222 221 217 215 216 211 206 199 199 204 203 202 200 204 206 205 208 208 201 192 182 184 181 171 181 186 181 187 188 191 192 185 185 186 185 187 185 177 169 165 163 162 164 162 162 164 165 169 174 175 173
182 197 198 205 217 221 221 226 191 197 235 225 98 204 262 248 233 220 219 223 231 258 222 205 212 248 257 231 204 209 228 233 229 229 230 229 226 222 218 213 206 201 196 198 206 207 205 204 207 207 205 208 203 196 193 184 180 181 180 183 182 186 195 195 196 193 189 188 187 187 185 184 179 164 157 157 156 158 159 160 162 164 166 170 170 169
160 209 215 212 219 222 228 232 203 204 227 170 117 234 248 230 227 215 220 225 204 233 246 212 197 233 258 233 207 211 232 244 243 245 262 257 240 227 220 212 203 201 198 200 206 209 212 209 206 205 203 205 198 182 179 168 160 165 164 158 170 193 202 200 201 197 194 192 192 191 181 179 177 159 154 154 149 152 156 159 161 162 164 164 163 164
114 125 244 223 222 231 235 227 207 216 222 151 195 217 206 195 201 203 222 235 216 228 243 214 195 228 262 250 221 194 227 313 349 335 328 312 259 227 214 207 201 199 198 202 204 203 205 204 198 187 173 185 172 132 131 130 132 145 143 142 167 194 198 196 206 206 199 193 196 196 183 181 174 155 151 151 148 153 156 160 162 162 163 162 161 163
178 182 203 215 220 238 242 202 191 216 215 216 230 222 203 189 187 205 210 217 234 235 226 199 200 229 251 252 245 69 57 17 360 333 323 322 275 219 201 196 189 185 187 197 200 191 185 180 164 147 153 162 124 110 133 171 159 145 148 149 165 200 200 190 199 208 204 197 200 201 190 180 165 153 153 153 153 157 159 162 163 163 164 162 164 165
206 213 212 207 204 215 226 199 176 198 208 218 231 223 219 205 190 215 212 207 233 220 131 157 202 233 246 253 40 35 25 12 359 342 328 308 260 192 178 178 171 168 175 184 181 167 161 160 147 147 155 136 110 114 150 183 160 135 135 143 160 191 197 186 187 198 200 194 194 199 192 176 161 159 160 156 157 161 164 164 164 166 166 165 168 167
203 208 210 212 203 205 222 216 181 187 202 212 219 217 224 218 201 218 219 217 233 201 131 165 223 245 245 239 48 20 8 10 360 360 1 348 181 158 151 151 149 151 157 165 164 162 170 173 160 151 146 130 123 135 168 171 142 133 133 139 156 177 185 183 189 195 192 183 181 189 193 180 169 168 166 163 163 165 168 167 166 168 167 166 168 167
217 210 198 204 200 189 207 225 223 208 199 205 219 227 232 235 228 232 237 243 245 216 151 168 213 252 248 108 57 30 22 22 13 19 37 82 121 126 126 131 137 139 144 158 167 173 179 167 152 146 146 148 145 153 171 171 147 138 140 144 156 175 181 179 186 192 186 177 173 181 192 189 181 178 174 169 167 168 170 167 166 168 165 165 166 166
230 242 180 184 183 181 197 215 230 241 216 195 214 234 237 245 244 245 286 322 292 257 204 185 226 264 172 95 69 53 38 34 34 38 49 63 77 89 99 116 131 138 150 171 176 170 166 157 152 155 164 169 156 149 162 172 158 152 159 163 165 175 179 176 183 188 183 176 174 182 191 192 193 191 183 175 172 172 170 164 164 165 164 163 162 163
225 233 149 164 189 200 203 203 209 228 228 178 208 226 225 257 260 246 184 105 199 261 237 203 243 231 151 131 90 69 38 36 44 51 61 62 67 74 72 75 91 123 150 157 156 152 152 153 154 165 177 166 144 143 155 161 164 170 176 173 168 171 175 177 182 183 180 179 180 184 188 190 198 199 187 178 174 172 168 163 163 163 162 161 159 159
235 225 152 178 199 192 198 214 209 226 234 202 214 217 177 215 258 250 238 205 217 245 234 210 245 240 203 184 139 84 35 39 41 51 68 72 72 77 84 91 97 105 107 111 127 133 135 148 158 170 178 158 138 141 149 152 166 180 181 172 167 169 172 174 177 178 179 182 182 183 185 189 200 199 187 181 178 172 168 165 164 164 163 160 157 157
234 237 164 174 189 164 163 216 212 213 225 237 276 267 206 221 226 217 231 239 235 245 243 223 233 245 244 174 146 106 43 49 47 52 60 63 70 75 94 121 128 128 121 117 130 132 133 153 171 177 172 151 139 141 146 152 167 176 177 170 164 166 168 170 176 176 176 181 182 181 183 190 200 197 186 180 177 174 173 170 167 168 166 162 160 159
214 242 186 155 165 159 172 208 211 193 202 229 263 256 232 245 248 224 221 237 246 249 248 235 220 230 12 82 127 99 74 68 58 64 57 55 62 60 66 91 124 138 137 132 135 133 137 162 183 179 167 148 138 140 148 157 168 171 172 170 165 166 168 170 175 176 176 180 182 180 182 191 197 193 184 178 176 177 178 174 171 171 169 166 165 163
197 233 218 153 154 180 192 204 223 212 197 207 223 223 214 219 250 256 233 233 257 260 249 250 233 122 55 42 99 84 82 82 72 80 71 56 50 43 49 55 60 92 113 115 120 131 144 169 183 173 162 151 142 144 151 159 166 167 169 172 168 168 170 172 175 177 177 178 180 180 184 190 191 187 181 179 178 179 178 176 174 172 170 168 167 167
201 212 228 194 179 201 184 102 26 313 261 230 226 226 223 216 220 235 228 216 242 260 262 270 262 104 74 10 44 72 86 126 112 93 82 63 44 42 48 47 48 54 60 65 69 89 133 173 184 174 164 151 143 147 154 160 166 168 172 174 169 168 171 173 175 177 176 175 179 183 184 185 183 182 183 181 178 178 176 175 173 169 167 168 167 167
206 220 228 225 221 210 116 95 78 9 315 253 244 251 246 231 226 235 237 217 220 234 246 265 263 106 95 339 77 110 136 104 66 46 77 71 52 49 49 44 46 46 46 50 48 42 44 44 104 166 155 137 135 143 155 166 170 170 172 171 170 172 173 174 175 176 175 174 176 179 181 180 177 181 184 181 177 177 175 171 169 166 165 165 164 166
159 227 231 227 228 216 138 136 140 128 236 223 215 279 281 260 255 262 272 276 242 226 226 246 237 128 111 172 108 101 86 64 36 26 51 60 51 49 49 47 47 47 45 48 48 43 37 34 35 42 85 116 125 123 140 180 180 174 174 172 173 175 172 172 175 175 175 175 174 174 176 175 173 179 183 180 177 176 171 169 168 166 163 161 162 163
185 218 222 220 214 201 192 191 185 190 215 207 131 48 330 299 275 271 268 263 257 238 230 252 247 109 117 152 113 89 74 58 41 39 50 56 51 46 48 47 46 46 47 46 47 49 46 40 36 43 119 133 125 113 131 207 205 185 183 176 171 170 168 169 173 175 175 169 158 150 152 159 166 175 179 177 175 172 169 168 168 164 160 158 159 159
202 226 217 230 225 208 207 211 208 199 184 151 95 69 23 354 277 262 248 237 241 221 215 243 228 124 135 128 94 78 75 64 50 48 52 52 51 49 48 46 45 46 48 46 43 47 50 44 32 27 92 106 90 90 128 195 254 193 177 169 165 166 169 170 171 175 168 148 137 135 140 155 167 175 176 173 170 170 168 168 166 163 159 156 155 157
184 156 342 299 275 243 275 339 353 297 166 147 92 67 39 18 329 274 253 246 263 228 221 215 135 135 137 104 77 64 69 65 49 44 47 45 43 46 49 52 54 52 49 48 45 45 49 45 27 13 37 66 65 65 86 97 64 103 119 135 162 168 168 170 172 172 156 141 152 165 171 173 173 172 172 169 166 166 165 165 164 159 156 154 153 156
182 160 25 15 40 29 6 22 21 31 112 103 68 54 37 26 356 263 255 314 326 272 234 156 130 134 118 79 66 56 56 55 46 42 41 38 39 42 49 55 58 53 45 43 42 39 39 40 23 6 18 42 51 51 62 74 82 105 125 137 147 152 159 164 166 164 150 142 154 167 170 168 165 160 158 157 158 159 158 158 157 151 147 146 147 154
208 176 70 54 48 27 15 38 73 83 86 77 64 52 38 37 41 53 42 360 338 304 223 144 124 114 92 74 67 61 61 58 53 49 44 42 44 48 53 56 55 52 46 42 41 36 33 35 30 16 21 34 40 43 49 57 70 89 104 117 127 134 148 159 158 153 146 138 138 145 151 154 160 165 159 142 141 146 145 144 142 137 136 137 142 150
248 171 135 128 81 38 9 354 63 106 97 76 59 48 41 47 53 57 47 21 21 49 71 96 96 83 72 79 76 72 75 70 63 61 57 51 47 49 53 56 56 55 53 49 48 47 42 42 42 36 35 38 40 44 48 47 54 71 79 87 102 117 132 142 138 132 131 125 122 131 142 143 147 152 146 129 123 122 120 121 122 122 124 128 135 141
272 170 136 135 120 96 41 324 139 111 99 87 65 44 39 52 58 53 40 21 39 70 82 98 97 82 67 83 86 87 88 79 69 64 61 55 50 52 55 56 56 53 53 52 53 53 51 49 48 43 42 44 46 51 53 52 53 62 72 78 82 92 107 114 114 116 121 122 123 128 135 135 136 139 138 134 127 118 115 117 115 112 112 118 129 137
287 159 147 172 173 142 146 170 152 119 106 92 62 34 26 31 37 45 40 14 15 79 116 133 123 107 108 101 95 93 85 76 66 59 61 57 54 57 57 54 52 49 50 54 56 55 52 50 48 44 40 42 49 52 54 60 62 59 68 80 85 91 97 97 98 103 108 116 125 129 131 133 133 133 134 134 132 127 124 123 116 111 110 118 125 127
283 173 171 197 193 158 157 165 151 176 171 107 45 9 3 9 10 27 59 30 11 22 119 138 104 113 130 124 110 98 84 75 64 54 57 59 58 59 58 57 56 51 50 52 55 56 56 56 53 50 47 48 53 55 57 65 70 65 68 79 85 90 93 94 94 93 91 100 112 118 122 123 120 120 126 133 136 136 139 143 142 142 145 144 143 134
258 216 195 202 199 158 152 159 167 212 212 148 32 354 348 1 3 10 47 31 13 12 42 73 99 115 125 119 108 96 79 73 69 59 55 57 61 65 63 60 58 55 53 53 54 57 62 66 65 61 57 58 60 63 66 70 76 78 79 80 81 82 85 88 90 89 87 89 95 104 112 116 116 118 128 140 146 152 166 181 185 183 175 166 168 163
249 213 195 203 176 139 152 175 185 179 165 156 55 13 6 353 358 8 43 36 25 40 69 92 111 111 107 108 104 96 85 80 74 63 56 54 59 69 71 65 61 60 58 55 55 58 59 64 70 66 58 59 64 67 68 69 74 80 80 79 79 77 78 80 81 83 84 83 84 94 104 111 116 119 124 132 139 144 152 161 163 161 157 153 151 148
249 201 169 75 68 144 169 191 172 116 100 145 146 19 12 346 349 356 66 52 31 24 79 107 115 110 115 119 112 109 105 90 75 60 54 56 59 66 71 68 64 64 62 58 56 52 44 46 56 57 53 59 67 68 68 66 70 76 75 73 75 75 73 74 75 77 81 81 81 86 92 96 103 109 113 122 128 131 131 130 129 132 134 135 133 131
265 215 166 149 10 168 135 89 107 134 107 80 54 23 15 342 339 333 287 54 28 0 69 122 126 123 126 127 123 127 122 94 73 54 48 56 62 67 72 73 72 71 69 65 61 50 38 41 52 52 50 57 63 67 70 68 68 73 71 66 67 70 68 69 71 70 73 76 79 87 92 93 95 97 100 107 114 118 121 120 118 119 121 122 119 116
277 242 202 178 210 249 149 117 127 160 111 45 16 11 4 323 298 284 257 33 29 11 90 134 134 132 136 138 142 158 159 88 70 56 50 60 68 71 72 71 70 69 68 64 60 49 40 46 55 55 53 56 58 66 77 79 74 73 71 63 61 64 63 63 65 65 66 68 71 82 91 95 97 98 96 95 98 104 109 112 113 116 119 116 111 108
333 250 226 171 147 200 181 132 88 80 72 21 355 352 350 329 236 218 225 56 48 58 142 142 140 143 149 151 158 197 211 121 103 98 84 79 78 77 75 70 64 60 59 56 53 50 44 46 57 62 60 56 53 59 76 84 81 76 70 65 61 61 59 56 57 63 68 72 74 79 85 89 93 97 98 97 97 101 106 108 109 112 113 111 112 112
14 17 79 117 111 94 86 87 72 71 52 2 347 344 343 329 205 219 214 63 32 17 157 151 150 154 157 160 171 307 309 139 137 135 125 109 97 88 83 78 69 62 60 56 52 53 50 47 55 60 58 54 52 53 67 80 80 73 68 68 65 61 58 54 55 61 67 73 75 75 75 77 81 86 90 92 96 100 103 105 107 110 109 109 112 113
23 14 41 72 90 88 92 100 92 86 34 351 343 344 345 300 217 231 33 20 339 326 157 152 157 159 165 184 349 14 52 107 124 132 131 120 109 98 89 85 77 70 66 63 62 63 59 54 57 62 60 58 59 54 57 72 75 68 65 69 66 62 62 62 61 61 63 68 71 72 71 71 72 74 75 77 85 92 97 100 102 103 101 101 108 114
17 12 53 55 52 70 100 109 108 108 39 350 338 339 351 324 232 3 359 325 312 312 148 148 155 159 158 28 76 100 103 109 120 131 129 117 110 104 99 95 88 81 76 72 71 70 64 60 64 68 70 71 71 66 62 69 71 67 64 66 64 64 68 68 66 65 64 65 66 66 66 67 67 68 67 66 70 75 79 84 87 87 88 91 98 106
340 332 83 59 20 49 93 88 89 100 20 354 345 351 12 3 356 342 332 331 1 62 126 135 142 146 110 92 111 117 117 118 123 126 122 115 112 109 104 100 93 90 88 81 75 73 70 70 71 71 72 74 77 79 77 73 72 69 66 65 64 68 70 67 64 65 64 64 63 60 58 59 59 60 59 58 60 63 63 64 67 69 73 80 86 91
3 7 92 59 350 10 71 69 58 27 356 357 1 16 13 353 332 315 327 16 38 51 92 96 86 86 108 119 122 118 117 121 123 122 119 116 114 112 109 104 96 93 93 87 82 78 77 79 80 79 76 73 74 79 81 81 80 77 72 69 68 70 70 66 63 61 59 59 60 58 56 54 52 51 50 49 51 55 57 58 60 61 62 65 71 82
42 41 72 74 55 59 70 76 77 48 12 15 23 24 20 19 19 35 64 62 42 34 56 82 86 90 106 118 118 114 115 117 120 123 123 120 120 121 116 107 100 96 92 89 87 83 80 80 80 78 75 70 69 72 76 80 82 80 77 75 71 69 67 62 60 61 60 59 58 56 55 55 51 48 45 42 42 45 44 43 46 49 52 54 57 62
68 44 68 92 95 89 79 74 77 70 52 46 45 38 38 46 58 72 79 74 58 50 54 75 90 92 94 102 106 109 114 119 123 127 128 127 127 126 121 114 107 101 96 92 88 85 84 82 78 75 71 68 67 68 68 70 74 74 73 70 66 65 65 62 60 60 58 57 55 51 48 48 46 44 40 38 40 42 40 37 39 40 38 41 45 48
81 64 80 102 118 110 83 72 71 71 66 60 60 58 54 55 61 69 72 73 73 70 66 73 84 87 87 93 102 111 120 128 131 129 130 131 129 127 125 120 114 110 106 102 96 91 87 84 81 78 75 70 67 66 67 67 69 69 68 65 61 60 59 56 56 56 54 52 49 46 44 41 38 37 38 37 37 38 39 38 39 40 37 33 29 28
65 45 74 84 88 93 94 92 85 76 69 64 62 62 62 66 72 76 79 82 82 78 74 75 77 76 71 70 83 104 117 124 126 124 122 123 125 127 125 119 117 117 114 111 109 102 96 93 91 87 83 79 75 70 69 68 68 67 67 65 62 61 59 56 54 54 54 52 47 44 42 40 38 38 39 40 40 39 37 33 32 35 34 27 21 17
35 100 98 96 96 98 106 112 108 91 76 69 68 68 69 76 85 92 94 92 89 86 81 77 75 74 66 48 40 59 87 93 98 110 116 113 113 117 117 116 118 120 118 118 115 108 104 103 103 99 94 92 89 84 80 78 75 73 72 71 69 69 68 67 66 65 63 58 51 46 43 41 41 41 42 48 51 49 42 35 36 43 34 18 18 34
87 98 111 118 107 98 104 113 110 97 86 78 77 77 78 83 91 97 100 101 100 101 99 94 88 82 73 59 44 41 51 46 40 63 95 105 107 111 116 120 124 125 123 120 115 110 108 105 103 101 98 95 95 91 87 86 83 79 76 72 68 67 68 71 74 74 71 65 55 49 48 51 51 49 49 54 64 67 54 41 39 49 53 34 27 41
52 39 43 85 89 87 97 100 94 97 101 98 91 87 87 90 93 96 100 106 112 117 117 115 110 100 89 78 66 55 54 49 32 39 69 88 103 115 123 127 129 130 129 125 119 117 115 111 109 106 99 95 95 91 87 86 82 78 73 65 59 55 53 53 59 67 69 64 54 47 48 54 54 52 52 51 49 58 77 66 48 42 42 44 45 45